This demonstration page uses our WeatherBlox Daily Observations layout. Learn more.

Left ArrowRight Arrow

Hourly Observations for April 18, 2016

Temp ( °F °C ) Dew Point ( °F °C ) Humidity (%) Winds ( mph kmh ) Pressure ( in mb ) Visibility ( mi km ) Precip ( " mm )
12:53 am 00:53 Clear 60 15.6 48 8.9 65 65 NNW 3 6 30.02 1017 10 16 0.00 0.00
1:53 am 01:53 Clear 57 13.9 48 8.9 72 72 Calm 30.02 1017 10 16 0.00 0.00
2:53 am 02:53 Clear 59 15 47 8.3 64 64 NNW 6 9 30.02 1017 10 16 0.00 0.00
3:53 am 03:53 Clear 55 12.8 47 8.3 74 74 Calm 30.02 1017 10 16 0.00 0.00
4:53 am 04:53 Clear 53 11.7 47 8.3 80 80 undefined N/A 30.02 1017 10 16 0.00 0.00
5:53 am 05:53 Clear 53 11.7 46 7.8 77 77 Calm 30.03 1017 10 16 0.00 0.00
6:53 am 06:53 Sunny 55 12.8 46 7.8 72 72 Calm 30.04 1017 10 16 0.00 0.00
7:53 am 07:53 Sunny 60 15.6 50 10 70 70 Calm 30.05 1018 10 16 0.00 0.00
8:53 am 08:53 Sunny 64 17.8 49 9.4 58 58 W 3 6 30.05 1018 10 16 0.00 0.00
9:53 am 09:53 Sunny 71 21.7 45 7.2 39 39 Calm 30.05 1018 10 16 0.00 0.00
10:53 am 10:53 Sunny 77 25 45 7.2 32 32 VRB 3 6 30.05 1018 10 16 0.00 0.00
11:53 am 11:53 Sunny 80 26.7 47 8.3 31 31 ENE 5 7 30.04 1017 10 16 0.00 0.00
12:53 pm 12:53 Sunny 83 28.3 47 8.3 28 28 Calm 30.03 1017 10 16 0.00 0.00
1:53 pm 13:53 Sunny 86 30 42 5.6 21 21 Calm 30.01 1016 10 16 0.00 0.00
2:53 pm 14:53 Sunny 86 30 40 4.4 20 20 ESE 3 6 30.00 1016 10 16 0.00 0.00
3:53 pm 15:53 Sunny 87 30.6 42 5.6 21 21 SSE 6 9 29.98 1015 10 16 0.00 0.00
4:53 pm 16:53 Sunny 87 30.6 47 8.3 25 25 SE 7 11 29.96 1015 10 16 0.00 0.00
5:53 pm 17:53 Sunny 86 30 46 7.8 25 25 SE 8 13 29.95 1014 10 16 0.00 0.00
6:53 pm 18:53 Sunny 83 28.3 51 10.6 33 33 SSE 7 11 29.96 1014 10 16 0.00 0.00
7:53 pm 19:53 Clear 77 25 52 11.1 42 42 S 5 7 29.96 1015 10 16 0.00 0.00
8:53 pm 20:53 Clear 72 22.2 53 11.7 52 52 Calm 29.97 1015 10 16 0.00 0.00
9:53 pm 21:53 Clear 70 21.1 51 10.6 51 51 N 6 9 29.98 1015 10 16 0.00 0.00
10:53 pm 22:53 Clear 65 18.3 52 11.1 63 63 Calm 29.99 1016 10 16 0.00 0.00
11:53 pm 23:53 Clear 65 18.3 51 10.6 61 61 NNW 5 7 29.99 1016 10 16 0.00 0.00

Powered by AerisWeather